{"data":{"norad_id":66654,"epoch":"2026-09-20T06:21:49.096512Z","epoch_age_seconds":141263,"freshness":"FRESH","line1":"1 66654U 25274E   26263.26515158  .00001206  00000+0  12018-3 0  9992","line2":"2 66654  97.7488 191.0319 0014215  45.3436 314.8940 14.93369388 44409","mean_motion":14.93369388,"eccentricity":0.0014215,"inclination_deg":97.7488,"raan_deg":191.0319,"arg_perigee_deg":45.3436,"mean_anomaly_deg":314.894,"bstar":0.00012018,"rev_number":4440,"period_min":96.426243337459,"perigee_km":577.53705687575,"apogee_km":597.34018837087,"semimajor_km":6965.5756226233,"source":"CELESTRAK","updated_at":"2026-09-21T09:00:16.116087Z"}}